Dalton, GA

2:03 PM EDT on April 26, 2017 (GMT -0400)
Dalton Municipal

Weather History for KDNN - January, 2014

Change the Weather History Date:

Wednesday, January 8, 2014

  Actual Average Record
Temperature  
Mean Temperature 26 °F -  
Max Temperature 41 °F 49 °F 68 °F (1989)
Min Temperature 10 °F 31 °F 8 °F (2015)
Degree Days  
Heating Degree Days 40    
Moisture  
Dew Point 15 °F    
Average Humidity 72    
Maximum Humidity 100    
Minimum Humidity 36    
Precipitation  
Precipitation 0.00 in - - ()
Sea Level Pressure  
Sea Level Pressure 30.49 in    
Wind  
Wind Speed 1 mph (NNW)    
Max Wind Speed 6 mph    
Max Gust Speed -    
Visibility 10 miles    
Events      
Averages and records for this station are not official NWS values.
T = Trace of Precipitation, MM = Missing Value Source: NWS Daily Summary

Daily Weather History Graph

Daily Weather History Graph

Search for Another Location

Airport or City:

Trip Planner

Search our weather history database for the weather conditions in past years. The results will help you decide how hot, cold, wet, or windy it might be!

Date:

Astronomy

Jan. 08, 2014 Rise Set
Actual Time 7:47 AM EST 5:45 PM EST
Civil Twilight 7:19 AM EST 6:13 PM EST
Nautical Twilight 6:48 AM EST 6:44 PM EST
Astronomical Twilight 6:17 AM EST 7:14 PM EST
Moon 12:29 PM EST (1/8) 1:00 AM EST (1/8)
Length of Visible Light 10h 53m
Length of Day
9h 58m
First Quarter, 56% of the Moon is Illuminated
Jan 8
First Quarter
Jan 15
Full
Jan 24
Last Quarter
Jan 30
New
Feb 6
First Quarter

Hourly Weather History & Observations

Time (EST) Temp. Windchill Dew Point Humidity Pressure Visibility Wind Dir Wind Speed Gust Speed Precip Events Conditions
12:15 AM 12.2 °F - 10.4 °F 92% 30.51 in 10.0 mi Calm Calm - N/A   Clear
12:35 AM 12.2 °F - 12.2 °F 100% 30.51 in 10.0 mi Calm Calm - N/A   Clear
12:55 AM 12.2 °F - 12.2 °F 100% 30.50 in 10.0 mi Calm Calm - N/A   Clear
1:15 AM 12.2 °F - 10.4 °F 92% 30.50 in 10.0 mi Calm Calm - N/A   Clear
1:35 AM 12.2 °F - 10.4 °F 92% 30.50 in 10.0 mi Calm Calm - N/A   Clear
1:55 AM 12.2 °F - 10.4 °F 92% 30.50 in 10.0 mi Calm Calm - N/A   Clear
2:15 AM 12.2 °F - 10.4 °F 92% 30.51 in 10.0 mi Calm Calm - N/A   Clear
2:35 AM 12.2 °F - 10.4 °F 92% 30.51 in 10.0 mi Calm Calm - N/A   Clear
2:55 AM 12.2 °F - 10.4 °F 92% 30.52 in 10.0 mi Calm Calm - N/A   Clear
3:15 AM 12.2 °F - 10.4 °F 92% 30.52 in 10.0 mi Calm Calm - N/A   Clear
3:35 AM 12.2 °F - 12.2 °F 100% 30.52 in 5.0 mi Calm Calm - N/A   Clear
3:55 AM 12.2 °F - 10.4 °F 92% 30.52 in 10.0 mi Calm Calm - N/A   Clear
4:15 AM 12.2 °F - 10.4 °F 92% 30.52 in 10.0 mi Calm Calm - N/A   Clear
4:35 AM 12.2 °F - 10.4 °F 92% 30.51 in 10.0 mi Calm Calm - N/A   Clear
4:55 AM 12.2 °F - 10.4 °F 92% 30.52 in 10.0 mi Calm Calm - N/A   Clear
5:15 AM 12.2 °F - 10.4 °F 92% 30.52 in 10.0 mi Calm Calm - N/A   Clear
5:35 AM 12.2 °F - 10.4 °F 92% 30.52 in 10.0 mi Calm Calm - N/A   Clear
5:55 AM 12.2 °F - 10.4 °F 92% 30.51 in 10.0 mi Calm Calm - N/A   Clear
6:15 AM 10.4 °F - 10.4 °F 100% 30.51 in 10.0 mi Calm Calm - N/A   Clear
6:35 AM 12.2 °F - 10.4 °F 92% 30.52 in 10.0 mi Calm Calm - N/A   Clear
6:55 AM 10.4 °F - 10.4 °F 100% 30.51 in 2.0 mi Calm Calm - N/A   Clear
7:15 AM 12.2 °F - 10.4 °F 92% 30.52 in 10.0 mi Calm Calm - N/A   Clear
7:35 AM 10.4 °F - 10.4 °F 100% 30.52 in 10.0 mi Calm Calm - N/A   Clear
7:55 AM 10.4 °F - 10.4 °F 100% 30.52 in 10.0 mi Calm Calm - N/A   Clear
8:15 AM 12.2 °F - 10.4 °F 92% 30.53 in 10.0 mi Calm Calm - N/A   Clear
8:35 AM 12.2 °F - 12.2 °F 100% 30.54 in 10.0 mi Calm Calm - N/A   Clear
8:55 AM 15.8 °F - 14.0 °F 93% 30.55 in 10.0 mi Calm Calm - N/A   Clear
9:15 AM 17.6 °F 12.3 °F 14.0 °F 86% 30.55 in 10.0 mi NNW 3.5 mph - N/A   Clear
9:35 AM 19.4 °F 11.5 °F 14.0 °F 80% 30.55 in 10.0 mi NNW 5.8 mph - N/A   Clear
9:55 AM 21.2 °F 14.9 °F 14.0 °F 74% 30.56 in 10.0 mi North 4.6 mph - N/A   Clear
10:15 AM 23.0 °F 15.8 °F 14.0 °F 68% 30.57 in 10.0 mi North 5.8 mph - N/A   Clear
10:35 AM 24.8 °F 17.9 °F 14.0 °F 64% 30.58 in 10.0 mi North 5.8 mph - N/A   Clear
10:55 AM 26.6 °F 22.6 °F 14.0 °F 59% 30.57 in 10.0 mi North 3.5 mph - N/A   Clear
11:15 AM 28.4 °F - 15.8 °F 59% 30.55 in 10.0 mi Calm Calm - N/A   Clear
11:35 AM 30.2 °F - 15.8 °F 55% 30.55 in 10.0 mi Calm Calm - N/A   Clear
11:55 AM 32.0 °F - 15.8 °F 51% 30.53 in 10.0 mi Calm Calm - N/A   Clear
12:15 PM 32.0 °F - 17.6 °F 55% 30.52 in 10.0 mi Calm Calm - N/A   Clear
12:35 PM 32.0 °F - 15.8 °F 51% 30.49 in 10.0 mi Calm Calm - N/A   Clear
12:55 PM 35.6 °F 31.7 °F 15.8 °F 44% 30.48 in 10.0 mi NW 4.6 mph - N/A   Clear
1:15 PM 35.6 °F 32.8 °F 15.8 °F 44% 30.48 in 10.0 mi WNW 3.5 mph - N/A   Clear
1:35 PM 35.6 °F 31.7 °F 15.8 °F 44% 30.47 in 10.0 mi NW 4.6 mph - N/A   Clear
1:55 PM 37.4 °F - 17.6 °F 45% 30.46 in 10.0 mi Calm Calm - N/A   Clear
2:15 PM 37.4 °F - 17.6 °F 45% 30.46 in 10.0 mi Calm Calm - N/A   Clear
2:35 PM 39.2 °F - 17.6 °F 42% 30.45 in 10.0 mi Calm Calm - N/A   Clear
2:55 PM 41.0 °F - 17.6 °F 39% 30.45 in 10.0 mi Calm Calm - N/A   Clear
3:15 PM 41.0 °F - 17.6 °F 39% 30.45 in 10.0 mi Calm Calm - N/A   Clear
3:35 PM 41.0 °F - 15.8 °F 36% 30.44 in 10.0 mi Calm Calm - N/A   Clear
3:55 PM 41.0 °F 37.1 °F 17.6 °F 39% 30.45 in 10.0 mi North 5.8 mph - N/A   Clear
4:15 PM 41.0 °F 39.0 °F 15.8 °F 36% 30.44 in 10.0 mi North 3.5 mph - N/A   Clear
4:35 PM 41.0 °F - 17.6 °F 39% 30.44 in 10.0 mi Calm Calm - N/A   Clear
4:55 PM 39.2 °F - 15.8 °F 39% 30.44 in 10.0 mi Calm Calm - N/A   Clear
5:15 PM 37.4 °F 34.9 °F 19.4 °F 48% 30.44 in 10.0 mi NNW 3.5 mph - N/A   Clear
5:35 PM 37.4 °F - 17.6 °F 45% 30.44 in 10.0 mi Calm Calm - N/A   Clear
5:55 PM 35.6 °F - 17.6 °F 48% 30.43 in 10.0 mi Calm Calm - N/A   Clear
6:15 PM 33.8 °F - 19.4 °F 56% 30.43 in 10.0 mi Calm Calm - N/A   Clear
6:35 PM 32.0 °F - 19.4 °F 60% 30.44 in 10.0 mi Calm Calm - N/A   Clear
6:55 PM 32.0 °F - 19.4 °F 60% 30.45 in 10.0 mi Calm Calm - N/A   Clear
7:15 PM 32.0 °F - 19.4 °F 60% 30.45 in 10.0 mi Calm Calm - N/A   Clear
7:35 PM 30.2 °F - 21.2 °F 69% 30.46 in 10.0 mi Calm Calm - N/A   Clear
7:55 PM 30.2 °F - 21.2 °F 69% 30.46 in 10.0 mi Calm Calm - N/A   Clear
8:15 PM 30.2 °F - 21.2 °F 69% 30.45 in 10.0 mi Calm Calm - N/A   Clear
8:35 PM 30.2 °F - 21.2 °F 69% 30.46 in 10.0 mi Calm Calm - N/A   Clear
8:55 PM 30.2 °F - 21.2 °F 69% 30.46 in 10.0 mi Calm Calm - N/A   Clear
9:15 PM 28.4 °F - 21.2 °F 74% 30.46 in 10.0 mi Calm Calm - N/A   Clear
9:35 PM 28.4 °F - 21.2 °F 74% 30.47 in 10.0 mi Calm Calm - N/A   Clear
9:55 PM 28.4 °F - 21.2 °F 74% 30.47 in 10.0 mi Calm Calm - N/A   Clear
10:15 PM 28.4 °F - 21.2 °F 74% 30.47 in 10.0 mi Calm Calm - N/A   Clear
10:35 PM 28.4 °F - 23.0 °F 80% 30.47 in 10.0 mi Calm Calm - N/A   Clear
10:55 PM 28.4 °F - 23.0 °F 80% 30.47 in 10.0 mi Calm Calm - N/A   Clear
11:15 PM 28.4 °F 24.6 °F 23.0 °F 80% 30.46 in 10.0 mi SE 3.5 mph - N/A   Scattered Clouds
11:35 PM 28.4 °F - 23.0 °F 80% 30.46 in 10.0 mi Calm Calm - N/A   Clear
11:55 PM 26.6 °F - 23.0 °F 86% 30.47 in 10.0 mi Calm Calm - N/A   Clear